QPF
0.03 0.02 0.02 0.02 0.02 0.03 0.02 0.02 0.03 0.01 0.01 0.02 0.02 0.01 0.01 0.00 0.00 0.00 0.00 0.00 0.00 0.01 0.01 0.01 0.01 0.01 0.01 0.01 0.01 0.00 0.00 0.00 0.01 0.01 0.01 0.01 0.01 0.01 0.01 0.00 0.01 0.01 0.01 0.01
0.02 0.02 0.02 0.02 0.02 0.03 0.03 0.03 0.03 0.02 0.01 0.01 0.02 0.01 0.00 0.00 0.00 0.00 0.00 0.00 0.00 0.00 0.00 0.01 0.01 0.01 0.02 0.02 0.02 0.01 0.00 0.01 0.01 0.01 0.01 0.01 0.01 0.01 0.01 0.01 0.01 0.01 0.01 0.01
0.01 0.01 0.02 0.03 0.03 0.03 0.03 0.05 0.05 0.03 0.03 0.02 0.01 0.01 0.00 0.00 0.00 0.00 0.00 0.00 0.00 0.00 0.00 0.00 0.00 0.00 0.01 0.03 0.03 0.01 0.01 0.01 0.01 0.01 0.01 0.01 0.01 0.01 0.00 0.00 0.01 0.01 0.01 0.01
0.02 0.03 0.04 0.03 0.03 0.02 0.01 0.03 0.06 0.05 0.04 0.03 0.01 0.00 0.00 0.00 0.00 0.00 0.00 0.00 0.00 0.00 0.00 0.00 0.00 0.00 0.00 0.00 0.01 0.01 0.02 0.02 0.01 0.01 0.01 0.01 0.01 0.00 0.00 0.00 0.00 0.01 0.01 0.01
0.02 0.04 0.05 0.05 0.03 0.02 0.01 0.01 0.01 0.02 0.02 0.01 0.00 0.00 0.00 0.00 0.00 0.00 0.00 0.00 0.00 0.00 0.00 0.01 0.00 0.00 0.00 0.01 0.01 0.01 0.01 0.01 0.02 0.01 0.02 0.02 0.01 0.01 0.00 0.00 0.01 0.01 0.02 0.02
0.02 0.04 0.04 0.05 0.04 0.02 0.01 0.01 0.01 0.00 0.00 0.00 0.00 0.00 0.00 0.00 0.00 0.00 0.00 0.00 0.01 0.01 0.01 0.01 0.01 0.00 0.00 0.00 0.00 0.01 0.01 0.02 0.02 0.02 0.02 0.02 0.02 0.01 0.01 0.02 0.02 0.02 0.02 0.02
0.02 0.03 0.03 0.03 0.02 0.01 0.01 0.01 0.01 0.00 0.00 0.00 0.00 0.00 0.00 0.00 0.00 0.00 0.00 0.00 0.01 0.02 0.02 0.02 0.02 0.01 0.01 0.01 0.00 0.00 0.01 0.01 0.02 0.03 0.04 0.03 0.02 0.02 0.02 0.02 0.02 0.02 0.02 0.02
0.01 0.01 0.02 0.02 0.02 0.01 0.01 0.01 0.00 0.00 0.00 0.00 0.00 0.00 0.00 0.00 0.00 0.00 0.00 0.00 0.00 0.01 0.03 0.02 0.03 0.02 0.01 0.01 0.01 0.01 0.01 0.02 0.02 0.02 0.03 0.03 0.03 0.03 0.02 0.02 0.02 0.02 0.02 0.02
0.01 0.01 0.02 0.02 0.02 0.01 0.01 0.00 0.00 0.00 0.00 0.00 0.00 0.00 0.00 0.00 0.00 0.00 0.00 0.00 0.00 0.00 0.01 0.03 0.02 0.02 0.02 0.01 0.01 0.01 0.01 0.01 0.01 0.01 0.02 0.03 0.03 0.03 0.03 0.02 0.02 0.01 0.01 0.02
0.02 0.01 0.01 0.01 0.01 0.01 0.01 0.01 0.00 0.00 0.00 0.00 0.00 0.00 0.00 0.00 0.00 0.00 0.00 0.00 0.00 0.00 0.01 0.01 0.02 0.02 0.01 0.01 0.01 0.01 0.01 0.01 0.01 0.02 0.02 0.02 0.03 0.03 0.03 0.02 0.02 0.01 0.01 0.01
0.01 0.01 0.02 0.02 0.01 0.01 0.01 0.01 0.01 0.00 0.00 0.00 0.00 0.00 0.00 0.00 0.00 0.00 0.00 0.01 0.01 0.01 0.01 0.01 0.01 0.01 0.01 0.01 0.01 0.01 0.01 0.01 0.01 0.01 0.01 0.02 0.02 0.02 0.02 0.02 0.03 0.03 0.02 0.01
0.02 0.02 0.02 0.02 0.02 0.02 0.02 0.01 0.01 0.01 0.00 0.00 0.00 0.00 0.00 0.00 0.00 0.00 0.01 0.01 0.02 0.01 0.01 0.01 0.01 0.01 0.01 0.01 0.00 0.00 0.01 0.01 0.01 0.01 0.01 0.01 0.01 0.01 0.02 0.02 0.03 0.04 0.04 0.03
0.02 0.02 0.02 0.02 0.01 0.02 0.02 0.01 0.01 0.00 0.00 0.00 0.00 0.00 0.00 0.00 0.00 0.01 0.01 0.01 0.01 0.02 0.02 0.01 0.01 0.01 0.01 0.02 0.01 0.01 0.01 0.01 0.01 0.01 0.01 0.01 0.01 0.01 0.01 0.01 0.02 0.02 0.03 0.04
0.02 0.01 0.01 0.01 0.01 0.01 0.01 0.01 0.01 0.00 0.00 0.00 0.00 0.00 0.00 0.00 0.00 0.00 0.00 0.01 0.01 0.01 0.01 0.01 0.01 0.02 0.02 0.02 0.02 0.02 0.02 0.01 0.01 0.01 0.02 0.02 0.03 0.02 0.02 0.01 0.01 0.01 0.02 0.03
0.01 0.01 0.01 0.00 0.00 0.01 0.01 0.01 0.01 0.00 0.00 0.00 0.00 0.00 0.00 0.00 0.00 0.00 0.00 0.00 0.01 0.01 0.01 0.01 0.02 0.02 0.02 0.02 0.02 0.02 0.02 0.02 0.02 0.02 0.03 0.03 0.03 0.02 0.02 0.02 0.01 0.01 0.01 0.02
0.01 0.01 0.01 0.01 0.01 0.01 0.01 0.01 0.01 0.00 0.00 0.00 0.00 0.00 0.00 0.00 0.00 0.00 0.00 0.00 0.00 0.01 0.01 0.01 0.01 0.02 0.02 0.01 0.02 0.01 0.01 0.02 0.02 0.02 0.02 0.03 0.02 0.02 0.02 0.02 0.01 0.01 0.01 0.01
0.01 0.01 0.02 0.01 0.01 0.01 0.01 0.01 0.01 0.01 0.01 0.00 0.00 0.00 0.00 0.00 0.00 0.00 0.00 0.00 0.00 0.00 0.00 0.00 0.01 0.00 0.01 0.01 0.01 0.01 0.01 0.02 0.02 0.02 0.01 0.02 0.03 0.03 0.03 0.03 0.02 0.03 0.02 0.03
0.00 0.01 0.02 0.01 0.01 0.01 0.01 0.01 0.01 0.01 0.01 0.01 0.01 0.01 0.00 0.00 0.00 0.00 0.00 0.00 0.00 0.00 0.00 0.00 0.00 0.00 0.00 0.01 0.01 0.01 0.01 0.02 0.02 0.01 0.02 0.02 0.02 0.03 0.03 0.04 0.04 0.04 0.04 0.04
0.00 0.01 0.02 0.01 0.01 0.01 0.01 0.01 0.01 0.01 0.01 0.01 0.01 0.01 0.01 0.01 0.00 0.00 0.00 0.00 0.00 0.00 0.00 0.00 0.00 0.00 0.00 0.01 0.01 0.01 0.02 0.02 0.02 0.02 0.02 0.02 0.02 0.02 0.02 0.03 0.03 0.03 0.03 0.03
0.00 0.00 0.01 0.02 0.01 0.01 0.01 0.01 0.01 0.01 0.01 0.01 0.02 0.02 0.02 0.01 0.01 0.01 0.01 0.01 0.01 0.01 0.02 0.01 0.01 0.01 0.01 0.01 0.01 0.01 0.01 0.02 0.02 0.02 0.02 0.03 0.03 0.03 0.03 0.03 0.02 0.02 0.02 0.02
0.00 0.00 0.01 0.02 0.02 0.01 0.01 0.01 0.01 0.01 0.01 0.01 0.02 0.02 0.02 0.02 0.02 0.01 0.01 0.01 0.01 0.01 0.01 0.02 0.01 0.01 0.02 0.03 0.03 0.02 0.02 0.02 0.02 0.03 0.03 0.03 0.03 0.02 0.02 0.02 0.01 0.01 0.01 0.01
0.00 0.00 0.00 0.01 0.01 0.01 0.01 0.01 0.01 0.01 0.01 0.01 0.01 0.02 0.02 0.02 0.02 0.01 0.01 0.01 0.02 0.02 0.02 0.01 0.02 0.04 0.05 0.04 0.04 0.03 0.03 0.03 0.03 0.03 0.03 0.03 0.02 0.02 0.01 0.01 0.01 0.01 0.01 0.01
0.00 0.00 0.00 0.01 0.01 0.01 0.01 0.01 0.01 0.01 0.01 0.01 0.01 0.02 0.02 0.02 0.02 0.01 0.01 0.02 0.04 0.04 0.03 0.03 0.05 0.06 0.05 0.03 0.03 0.03 0.03 0.03 0.02 0.02 0.02 0.02 0.02 0.02 0.01 0.01 0.01 0.01 0.01 0.01
0.00 0.00 0.00 0.00 0.01 0.01 0.01 0.01 0.01 0.01 0.01 0.01 0.01 0.01 0.02 0.02 0.02 0.02 0.02 0.03 0.06 0.07 0.06 0.06 0.07 0.06 0.04 0.03 0.03 0.02 0.02 0.02 0.02 0.02 0.02 0.02 0.01 0.01 0.01 0.01 0.01 0.01 0.01 0.01
0.00 0.00 0.00 0.00 0.00 0.01 0.01 0.00 0.01 0.01 0.01 0.01 0.01 0.01 0.01 0.02 0.03 0.02 0.02 0.04 0.08 0.09 0.09 0.07 0.06 0.04 0.03 0.03 0.03 0.02 0.02 0.02 0.02 0.01 0.02 0.02 0.02 0.02 0.01 0.01 0.00 0.00 0.00 0.00
0.00 0.00 0.00 0.00 0.00 0.00 0.00 0.00 0.00 0.00 0.01 0.01 0.01 0.01 0.01 0.02 0.02 0.03 0.03 0.05 0.06 0.07 0.07 0.05 0.04 0.03 0.02 0.03 0.03 0.03 0.03 0.03 0.03 0.02 0.02 0.02 0.02 0.02 0.01 0.01 0.01 0.01 0.01 0.00
0.00 0.00 0.00 0.00 0.00 0.00 0.00 0.00 0.01 0.01 0.01 0.01 0.01 0.01 0.02 0.02 0.02 0.02 0.03 0.04 0.04 0.05 0.06 0.05 0.05 0.05 0.04 0.04 0.03 0.03 0.03 0.02 0.02 0.02 0.01 0.02 0.01 0.01 0.01 0.01 0.01 0.01 0.01 0.01
MSLP
1011.10 1011.53 1012.02 1012.55 1013.11 1013.68 1014.24 1014.76 1015.23 1015.66 1016.04 1016.41 1016.78 1017.18 1017.64 1018.16 1018.75 1019.39 1020.06 1020.73 1021.37 1021.96 1022.49 1022.94 1023.33 1023.65 1023.93 1024.15 1024.35 1024.51 1024.63 1024.72 1024.78 1024.81 1024.81 1024.78 1024.75 1024.70 1024.66 1024.61 1024.55 1024.50 1024.43 1024.36
1010.94 1011.29 1011.64 1011.98 1012.31 1012.64 1012.99 1013.34 1013.73 1014.15 1014.61 1015.13 1015.69 1016.31 1016.98 1017.68 1018.39 1019.11 1019.81 1020.47 1021.09 1021.66 1022.19 1022.67 1023.11 1023.52 1023.90 1024.25 1024.55 1024.81 1025.01 1025.16 1025.25 1025.28 1025.28 1025.24 1025.19 1025.13 1025.06 1024.98 1024.90 1024.80 1024.69 1024.56
1010.82 1011.09 1011.30 1011.45 1011.57 1011.68 1011.82 1012.02 1012.31 1012.71 1013.22 1013.84 1014.56 1015.35 1016.19 1017.04 1017.88 1018.68 1019.42 1020.10 1020.73 1021.30 1021.85 1022.37 1022.87 1023.36 1023.83 1024.28 1024.68 1025.02 1025.29 1025.48 1025.61 1025.66 1025.67 1025.64 1025.59 1025.52 1025.45 1025.36 1025.26 1025.13 1024.98 1024.81
1010.62 1010.80 1010.88 1010.88 1010.81 1010.74 1010.71 1010.77 1010.97 1011.32 1011.85 1012.54 1013.37 1014.29 1015.27 1016.25 1017.20 1018.09 1018.90 1019.63 1020.30 1020.92 1021.50 1022.08 1022.64 1023.21 1023.76 1024.28 1024.74 1025.15 1025.46 1025.70 1025.85 1025.93 1025.95 1025.94 1025.90 1025.85 1025.79 1025.71 1025.61 1025.48 1025.30 1025.09
1010.22 1010.30 1010.27 1010.14 1009.94 1009.73 1009.58 1009.53 1009.65 1009.97 1010.50 1011.23 1012.13 1013.15 1014.23 1015.32 1016.38 1017.37 1018.28 1019.09 1019.84 1020.53 1021.19 1021.83 1022.46 1023.09 1023.70 1024.27 1024.78 1025.22 1025.56 1025.82 1025.99 1026.09 1026.13 1026.14 1026.13 1026.11 1026.08 1026.02 1025.94 1025.80 1025.62 1025.39
1009.51 1009.50 1009.38 1009.16 1008.88 1008.59 1008.37 1008.27 1008.35 1008.65 1009.18 1009.93 1010.88 1011.97 1013.13 1014.32 1015.48 1016.57 1017.59 1018.51 1019.36 1020.15 1020.90 1021.63 1022.33 1023.02 1023.67 1024.27 1024.80 1025.25 1025.61 1025.87 1026.05 1026.16 1026.22 1026.26 1026.28 1026.29 1026.29 1026.27 1026.21 1026.09 1025.91 1025.67
1008.47 1008.36 1008.18 1007.91 1007.61 1007.31 1007.08 1006.98 1007.07 1007.38 1007.92 1008.70 1009.67 1010.80 1012.03 1013.29 1014.54 1015.74 1016.87 1017.92 1018.89 1019.79 1020.64 1021.46 1022.23 1022.97 1023.66 1024.27 1024.81 1025.26 1025.61 1025.87 1026.05 1026.17 1026.25 1026.31 1026.36 1026.41 1026.44 1026.44 1026.40 1026.31 1026.13 1025.89
1007.14 1006.95 1006.72 1006.45 1006.17 1005.92 1005.74 1005.70 1005.84 1006.18 1006.76 1007.57 1008.57 1009.73 1011.00 1012.32 1013.64 1014.94 1016.17 1017.33 1018.42 1019.43 1020.39 1021.28 1022.13 1022.91 1023.62 1024.25 1024.79 1025.23 1025.57 1025.83 1026.01 1026.14 1026.24 1026.32 1026.40 1026.46 1026.51 1026.54 1026.51 1026.42 1026.26 1026.01
1005.64 1005.38 1005.13 1004.89 1004.67 1004.51 1004.44 1004.49 1004.72 1005.14 1005.77 1006.60 1007.63 1008.82 1010.11 1011.47 1012.85 1014.21 1015.53 1016.78 1017.96 1019.08 1020.12 1021.08 1021.98 1022.80 1023.53 1024.17 1024.71 1025.15 1025.50 1025.76 1025.95 1026.09 1026.21 1026.30 1026.38 1026.46 1026.51 1026.54 1026.51 1026.42 1026.25 1026.00
1004.13 1003.80 1003.55 1003.36 1003.24 1003.20 1003.25 1003.44 1003.77 1004.28 1004.98 1005.86 1006.91 1008.11 1009.41 1010.79 1012.19 1013.60 1014.97 1016.29 1017.54 1018.72 1019.82 1020.84 1021.77 1022.62 1023.37 1024.02 1024.57 1025.02 1025.38 1025.65 1025.86 1026.02 1026.14 1026.24 1026.33 1026.39 1026.43 1026.44 1026.39 1026.28 1026.10 1025.84
1002.73 1002.37 1002.14 1002.01 1002.00 1002.08 1002.28 1002.60 1003.06 1003.67 1004.43 1005.35 1006.42 1007.63 1008.93 1010.30 1011.71 1013.13 1014.52 1015.87 1017.16 1018.37 1019.50 1020.55 1021.50 1022.36 1023.12 1023.78 1024.35 1024.81 1025.19 1025.49 1025.73 1025.91 1026.05 1026.15 1026.22 1026.26 1026.27 1026.24 1026.16 1026.01 1025.81 1025.54
1001.58 1001.20 1001.00 1000.95 1001.04 1001.26 1001.59 1002.03 1002.60 1003.29 1004.12 1005.08 1006.17 1007.37 1008.66 1010.02 1011.41 1012.82 1014.21 1015.56 1016.84 1018.06 1019.19 1020.23 1021.18 1022.04 1022.80 1023.47 1024.05 1024.54 1024.95 1025.28 1025.55 1025.75 1025.90 1026.01 1026.06 1026.07 1026.04 1025.95 1025.82 1025.63 1025.38 1025.09
1000.68 1000.33 1000.18 1000.21 1000.40 1000.72 1001.16 1001.72 1002.37 1003.14 1004.01 1004.99 1006.09 1007.28 1008.55 1009.89 1011.26 1012.64 1014.01 1015.34 1016.60 1017.79 1018.90 1019.92 1020.85 1021.69 1022.44 1023.11 1023.70 1024.21 1024.65 1025.02 1025.31 1025.54 1025.71 1025.81 1025.85 1025.82 1025.74 1025.60 1025.40 1025.16 1024.88 1024.56
1000.03 999.74 999.66 999.77 1000.05 1000.46 1000.99 1001.61 1002.33 1003.14 1004.04 1005.03 1006.13 1007.31 1008.57 1009.88 1011.23 1012.58 1013.92 1015.21 1016.44 1017.59 1018.66 1019.64 1020.53 1021.34 1022.07 1022.73 1023.32 1023.85 1024.31 1024.71 1025.03 1025.29 1025.46 1025.56 1025.57 1025.52 1025.39 1025.19 1024.94 1024.65 1024.32 1023.97
999.55 999.35 999.37 999.57 999.93 1000.41 1001.00 1001.67 1002.42 1003.25 1004.16 1005.15 1006.24 1007.40 1008.64 1009.94 1011.26 1012.59 1013.90 1015.16 1016.35 1017.46 1018.48 1019.41 1020.26 1021.02 1021.73 1022.36 1022.95 1023.48 1023.95 1024.37 1024.71 1024.98 1025.17 1025.26 1025.26 1025.17 1025.00 1024.75 1024.45 1024.11 1023.74 1023.35
999.16 999.10 999.23 999.53 999.97 1000.51 1001.14 1001.83 1002.59 1003.41 1004.31 1005.29 1006.36 1007.52 1008.74 1010.02 1011.33 1012.65 1013.93 1015.16 1016.32 1017.39 1018.36 1019.24 1020.04 1020.76 1021.42 1022.02 1022.59 1023.11 1023.58 1024.00 1024.36 1024.63 1024.82 1024.91 1024.89 1024.78 1024.57 1024.29 1023.95 1023.56 1023.15 1022.73
998.80 998.90 999.17 999.58 1000.10 1000.69 1001.34 1002.04 1002.79 1003.60 1004.48 1005.44 1006.49 1007.62 1008.83 1010.10 1011.40 1012.70 1013.98 1015.19 1016.31 1017.35 1018.28 1019.11 1019.86 1020.53 1021.15 1021.72 1022.25 1022.75 1023.21 1023.62 1023.97 1024.25 1024.43 1024.51 1024.48 1024.34 1024.11 1023.80 1023.42 1023.00 1022.56 1022.10
998.42 998.71 999.13 999.66 1000.25 1000.90 1001.57 1002.27 1003.00 1003.79 1004.64 1005.57 1006.60 1007.72 1008.91 1010.17 1011.46 1012.75 1014.01 1015.20 1016.31 1017.31 1018.20 1019.00 1019.70 1020.33 1020.90 1021.43 1021.93 1022.39 1022.83 1023.22 1023.55 1023.81 1023.98 1024.04 1024.00 1023.85 1023.60 1023.26 1022.86 1022.41 1021.93 1021.44
998.05 998.51 999.09 999.73 1000.40 1001.09 1001.79 1002.49 1003.22 1003.98 1004.81 1005.71 1006.71 1007.81 1008.99 1010.23 1011.50 1012.78 1014.02 1015.19 1016.27 1017.25 1018.11 1018.87 1019.53 1020.12 1020.65 1021.14 1021.59 1022.02 1022.42 1022.78 1023.08 1023.31 1023.46 1023.50 1023.43 1023.26 1022.99 1022.64 1022.21 1021.74 1021.23 1020.71
997.70 998.32 999.03 999.77 1000.52 1001.26 1001.99 1002.70 1003.42 1004.18 1004.99 1005.87 1006.85 1007.92 1009.07 1010.29 1011.54 1012.79 1014.00 1015.14 1016.20 1017.14 1017.97 1018.70 1019.33 1019.88 1020.38 1020.82 1021.24 1021.62 1021.97 1022.29 1022.55 1022.74 1022.85 1022.86 1022.77 1022.58 1022.29 1021.91 1021.47 1020.97 1020.44 1019.90
997.41 998.15 998.96 999.78 1000.60 1001.39 1002.15 1002.88 1003.62 1004.37 1005.18 1006.06 1007.02 1008.06 1009.19 1010.37 1011.58 1012.79 1013.96 1015.06 1016.08 1016.99 1017.78 1018.48 1019.07 1019.59 1020.05 1020.46 1020.83 1021.17 1021.47 1021.74 1021.95 1022.09 1022.15 1022.12 1022.00 1021.78 1021.46 1021.07 1020.61 1020.10 1019.55 1018.99
997.19 998.01 998.88 999.76 1000.62 1001.46 1002.25 1003.02 1003.79 1004.57 1005.39 1006.27 1007.22 1008.25 1009.34 1010.48 1011.64 1012.80 1013.91 1014.96 1015.92 1016.78 1017.54 1018.20 1018.76 1019.25 1019.67 1020.04 1020.37 1020.66 1020.92 1021.13 1021.28 1021.37 1021.38 1021.30 1021.13 1020.87 1020.53 1020.12 1019.65 1019.13 1018.57 1018.00
997.05 997.89 998.78 999.69 1000.59 1001.46 1002.30 1003.12 1003.93 1004.75 1005.60 1006.50 1007.45 1008.47 1009.53 1010.62 1011.73 1012.82 1013.86 1014.85 1015.74 1016.55 1017.26 1017.87 1018.40 1018.85 1019.24 1019.58 1019.86 1020.11 1020.31 1020.47 1020.56 1020.58 1020.53 1020.40 1020.19 1019.90 1019.53 1019.10 1018.62 1018.09 1017.54 1016.97
996.98 997.80 998.68 999.58 1000.50 1001.40 1002.29 1003.16 1004.03 1004.90 1005.80 1006.73 1007.70 1008.71 1009.75 1010.79 1011.84 1012.85 1013.82 1014.73 1015.56 1016.29 1016.95 1017.51 1018.00 1018.42 1018.78 1019.08 1019.33 1019.53 1019.68 1019.78 1019.81 1019.77 1019.66 1019.47 1019.21 1018.88 1018.49 1018.04 1017.55 1017.03 1016.49 1015.93
996.96 997.72 998.56 999.46 1000.37 1001.30 1002.23 1003.17 1004.10 1005.04 1006.00 1006.97 1007.96 1008.97 1009.98 1010.98 1011.96 1012.90 1013.79 1014.62 1015.36 1016.04 1016.63 1017.14 1017.59 1017.97 1018.30 1018.57 1018.78 1018.94 1019.04 1019.08 1019.05 1018.96 1018.78 1018.54 1018.23 1017.86 1017.44 1016.98 1016.49 1015.98 1015.46 1014.92
996.98 997.67 998.47 999.33 1000.25 1001.20 1002.17 1003.16 1004.16 1005.17 1006.18 1007.20 1008.22 1009.22 1010.21 1011.17 1012.09 1012.96 1013.77 1014.51 1015.18 1015.78 1016.32 1016.78 1017.19 1017.54 1017.83 1018.07 1018.25 1018.37 1018.42 1018.41 1018.32 1018.16 1017.92 1017.62 1017.27 1016.86 1016.41 1015.94 1015.45 1014.95 1014.44 1013.94
997.05 997.68 998.42 999.26 1000.17 1001.14 1002.15 1003.19 1004.25 1005.31 1006.38 1007.43 1008.46 1009.46 1010.42 1011.34 1012.20 1013.00 1013.73 1014.40 1015.00 1015.54 1016.02 1016.44 1016.81 1017.13 1017.39 1017.60 1017.74 1017.82 1017.82 1017.76 1017.61 1017.38 1017.09 1016.73 1016.32 1015.86 1015.38 1014.89 1014.39 1013.90 1013.41 1012.94
Thickness
5670 5679 5682 5683 5687 5690 5684 5679 5672 5680 5684 5692 5699 5702 5703 5703 5701 5699 5698 5697 5697 5694 5693 5692 5691 5691 5691 5690 5689 5688 5685 5682 5681 5680 5679 5678 5676 5675 5674 5673 5672 5670 5668 5666
5664 5676 5677 5677 5683 5686 5686 5685 5682 5683 5683 5697 5700 5700 5698 5697 5696 5694 5694 5694 5693 5692 5690 5688 5687 5686 5686 5685 5684 5683 5680 5678 5677 5676 5674 5673 5672 5671 5669 5668 5666 5665 5664 5662
5646 5662 5666 5661 5676 5681 5681 5685 5683 5676 5683 5692 5691 5692 5693 5693 5693 5691 5691 5690 5689 5688 5687 5686 5685 5683 5681 5680 5679 5678 5675 5674 5673 5672 5670 5669 5668 5666 5664 5663 5661 5660 5658 5657
5636 5647 5641 5662 5681 5683 5679 5681 5683 5682 5685 5688 5689 5690 5692 5692 5689 5687 5688 5687 5686 5685 5684 5683 5682 5680 5678 5676 5674 5673 5671 5669 5668 5667 5665 5664 5663 5661 5660 5659 5657 5655 5653 5653
5626 5629 5638 5659 5673 5675 5671 5669 5677 5677 5679 5682 5683 5680 5679 5685 5686 5685 5686 5685 5685 5684 5682 5679 5678 5676 5673 5670 5669 5667 5665 5664 5663 5662 5661 5659 5658 5657 5656 5654 5652 5650 5649 5648
5622 5623 5625 5649 5670 5676 5670 5656 5669 5673 5672 5672 5671 5659 5665 5678 5680 5681 5681 5681 5680 5679 5677 5674 5672 5671 5667 5664 5662 5661 5660 5660 5659 5658 5657 5655 5654 5653 5651 5650 5648 5646 5644 5643
5617 5617 5628 5649 5663 5667 5646 5647 5662 5665 5666 5665 5662 5663 5669 5673 5674 5675 5675 5675 5674 5672 5670 5669 5667 5665 5661 5659 5658 5658 5657 5656 5655 5654 5652 5651 5649 5648 5647 5645 5643 5641 5639 5638
5611 5610 5620 5648 5652 5646 5645 5654 5658 5659 5660 5661 5661 5664 5665 5666 5666 5667 5666 5667 5667 5664 5663 5663 5661 5659 5656 5654 5654 5653 5651 5650 5649 5648 5648 5647 5644 5643 5641 5639 5637 5634 5633 5631
5616 5621 5635 5642 5644 5647 5648 5646 5649 5651 5653 5655 5654 5655 5657 5657 5658 5659 5660 5659 5659 5657 5656 5655 5655 5653 5651 5650 5649 5647 5644 5643 5642 5642 5642 5641 5639 5637 5635 5633 5631 5629 5627 5625
5611 5621 5629 5634 5637 5640 5641 5641 5644 5646 5647 5648 5647 5648 5649 5649 5649 5650 5651 5650 5650 5649 5647 5647 5647 5647 5646 5646 5644 5641 5638 5636 5635 5634 5634 5634 5633 5632 5630 5628 5626 5624 5623 5621
5602 5612 5619 5625 5627 5630 5634 5636 5637 5640 5642 5643 5643 5642 5642 5641 5641 5642 5642 5643 5642 5641 5640 5640 5640 5640 5640 5639 5637 5634 5632 5630 5629 5628 5627 5626 5625 5625 5625 5625 5624 5622 5620 5618
5597 5606 5606 5613 5621 5624 5626 5628 5630 5632 5633 5636 5637 5636 5636 5635 5635 5635 5634 5635 5634 5634 5633 5634 5633 5632 5632 5632 5630 5628 5625 5624 5622 5621 5620 5619 5618 5617 5618 5618 5618 5618 5617 5614
5601 5606 5607 5612 5615 5618 5619 5622 5624 5625 5627 5628 5630 5631 5630 5628 5629 5628 5628 5627 5627 5626 5627 5626 5626 5625 5626 5626 5624 5622 5619 5618 5616 5615 5613 5612 5610 5609 5608 5608 5609 5609 5608 5607
5597 5599 5599 5605 5607 5611 5613 5616 5618 5620 5622 5623 5623 5623 5622 5622 5622 5621 5621 5621 5621 5620 5620 5619 5619 5619 5620 5619 5617 5615 5614 5613 5611 5608 5607 5605 5604 5603 5602 5600 5598 5597 5598 5598
5591 5593 5595 5599 5602 5604 5606 5608 5609 5611 5613 5614 5615 5615 5614 5614 5614 5614 5615 5614 5614 5613 5612 5612 5611 5612 5613 5612 5610 5608 5606 5605 5603 5601 5600 5598 5596 5595 5594 5593 5590 5588 5587 5587
5585 5587 5589 5591 5593 5596 5598 5599 5600 5602 5604 5606 5606 5607 5608 5608 5607 5607 5607 5607 5605 5605 5605 5605 5605 5606 5606 5604 5602 5600 5598 5598 5596 5593 5591 5589 5588 5586 5585 5584 5582 5580 5579 5578
5576 5577 5580 5582 5585 5587 5589 5591 5593 5594 5596 5598 5599 5600 5600 5599 5598 5598 5598 5599 5599 5599 5599 5599 5598 5599 5598 5597 5594 5591 5589 5587 5587 5584 5582 5581 5579 5578 5577 5575 5573 5572 5571 5570
5576 5577 5577 5578 5579 5580 5582 5585 5587 5588 5589 5591 5592 5592 5591 5591 5590 5590 5591 5591 5591 5591 5591 5592 5592 5591 5590 5588 5586 5583 5580 5578 5576 5575 5573 5572 5571 5569 5568 5566 5565 5563 5561 5559
5570 5571 5572 5573 5574 5574 5575 5577 5579 5580 5581 5583 5583 5583 5584 5583 5583 5583 5583 5582 5582 5581 5582 5583 5584 5582 5580 5579 5577 5574 5572 5570 5567 5566 5564 5563 5562 5560 5559 5557 5556 5554 5552 5549
5565 5565 5565 5566 5567 5567 5568 5569 5570 5572 5573 5573 5573 5574 5574 5574 5575 5575 5574 5573 5573 5574 5575 5576 5575 5573 5571 5570 5569 5566 5564 5561 5559 5557 5555 5554 5552 5551 5550 5548 5547 5545 5543 5541
5557 5557 5557 5557 5558 5559 5559 5560 5561 5563 5564 5564 5564 5564 5564 5565 5566 5566 5565 5564 5566 5567 5567 5567 5565 5564 5563 5562 5560 5557 5555 5553 5550 5549 5547 5546 5544 5543 5541 5540 5538 5536 5534 5532
5547 5548 5548 5548 5548 5548 5550 5551 5553 5555 5555 5555 5555 5555 5555 5555 5556 5555 5556 5556 5558 5558 5558 5557 5556 5556 5555 5553 5550 5548 5546 5545 5542 5540 5538 5537 5536 5534 5532 5530 5528 5527 5525 5522
5538 5539 5539 5539 5540 5540 5541 5542 5544 5545 5545 5545 5545 5545 5546 5546 5546 5546 5546 5547 5548 5549 5549 5548 5548 5548 5547 5544 5541 5539 5537 5536 5534 5532 5531 5529 5527 5525 5523 5521 5519 5517 5515 5512
5530 5531 5531 5531 5531 5531 5531 5533 5534 5535 5536 5536 5536 5536 5536 5536 5536 5537 5538 5540 5540 5540 5540 5540 5540 5539 5538 5534 5532 5530 5528 5527 5526 5524 5523 5521 5518 5516 5515 5512 5510 5508 5505 5503
5523 5523 5522 5522 5521 5522 5523 5523 5523 5524 5524 5525 5526 5526 5526 5527 5527 5528 5529 5529 5530 5531 5531 5531 5531 5530 5527 5524 5523 5521 5520 5519 5518 5516 5514 5512 5510 5508 5506 5503 5501 5498 5496 5494
5515 5514 5515 5514 5514 5514 5513 5513 5513 5513 5514 5514 5515 5515 5516 5516 5517 5518 5519 5519 5520 5520 5519 5519 5519 5518 5516 5515 5514 5513 5512 5511 5509 5508 5506 5503 5501 5499 5497 5495 5492 5490 5487 5485
5506 5506 5505 5504 5505 5505 5504 5504 5504 5504 5505 5505 5505 5505 5505 5506 5507 5508 5508 5508 5508 5507 5507 5507 5507 5506 5506 5505 5504 5503 5502 5501 5499 5498 5496 5494 5492 5489 5487 5485 5483 5481 5478 5477